Lafayette, Louisiana, United States (70501)
Lat: 30.22N, Lon: 92.02W
Wx Zone: LAZ044
Local Info
Past Weather Observations for Today

NOTE: This archive is for the closest National Weather Service station to Lafayette. Information may differ from the station used for current weather conditions.

Click here for Long-term Archive

Time Weather Temperature Dewpoint Humidity Pressure Winds Precip Visibility
16:53
Mostly Cloudy
79°F / 26°C 70°F / 21°C 74% 30.12 in
(1020 mb)
NE 3.5 mph
(NE 6 kph)
- 10SM
15:53
Overcast
79°F / 26°C 70°F / 21°C 74% 30.12 in
(1020 mb)
Calm - 10SM
14:53
Mostly Cloudy
79°F / 26°C 68°F / 20°C 70% 30.12 in
(1020 mb)
Calm - 10SM
13:53
Overcast
77°F / 25°C 66°F / 19°C 69% 30.15 in
(1021 mb)
Calm - 10SM
12:53
Overcast
75°F / 24°C 66°F / 19°C 74% 30.15 in
(1021 mb)
Variable 4.6 mph
(Variable 7 kph)
- 10SM
11:53
Overcast
73°F / 23°C 64°F / 18°C 74% 30.18 in
(1022 mb)
NE 6.9 mph
(NE 11 kph)
- 10SM
11:31
Overcast
73°F / 23°C 64°F / 18°C 74% 30.18 in
(1022 mb)
NE 4.6 mph
(NE 7 kph)
- 10SM
10:53
Overcast
72°F / 22°C 64°F / 18°C 78% 30.18 in
(1022 mb)
NE 5.8 mph
(NE 9 kph)
- 10SM
10:00
Overcast
72°F / 22°C 64°F / 18°C 78% 30.15 in
(1021 mb)
Variable 5.8 mph
(Variable 9 kph)
- 8SM
09:53
Overcast
70°F / 21°C 64°F / 18°C 83% 30.15 in
(1021 mb)
ENE 5.8 mph
(ENE 9 kph)
- 8SM
09:15
Overcast
68°F / 20°C 63°F / 17°C 83% 30.18 in
(1022 mb)
Variable 5.8 mph
(Variable 9 kph)
- 8SM
08:53
Overcast
66°F / 19°C 63°F / 17°C 88% 30.18 in
(1022 mb)
ENE 6.9 mph
(ENE 11 kph)
- 9SM
07:53
Overcast
64°F / 18°C 61°F / 16°C 88% 30.18 in
(1022 mb)
NE 10.4 mph
(NE 17 kph)
- 10SM
06:53
Overcast
64°F / 18°C 61°F / 16°C 88% 30.18 in
(1022 mb)
NE 10.4 mph
(NE 17 kph)
- 10SM
05:53
Overcast
63°F / 17°C 61°F / 16°C 94% 30.15 in
(1021 mb)
NE 11.5 mph
(NE 19 kph)
- 10SM
04:53
Overcast
63°F / 17°C 61°F / 16°C 94% 30.15 in
(1021 mb)
NE 10.4 mph
(NE 17 kph)
- 10SM
04:38
Overcast
63°F / 17°C 61°F / 16°C 94% 30.15 in
(1021 mb)
NE 9.2 mph
(NE 15 kph)
- 10SM
04:14
Overcast
63°F / 17°C 61°F / 16°C 94% 30.12 in
(1020 mb)
N 12.7 mph
(N 20 kph)
- 9SM
04:03
Overcast
63°F / 17°C 61°F / 16°C 94% 30.12 in
(1020 mb)
NNE 9.2 mph
(NNE 15 kph)
- 9SM
03:53
Overcast
63°F / 17°C 61°F / 16°C 94% 30.12 in
(1020 mb)
N 8.1 mph
(N 13 kph)
- 10SM
02:53
Overcast
63°F / 17°C 61°F / 16°C 94% 30.12 in
(1020 mb)
N 12.7 mph
(N 20 kph)
- 9SM
02:11
Overcast
64°F / 18°C 63°F / 17°C 94% 30.09 in
(1019 mb)
N 8.1 mph
(N 13 kph)
- 7SM
01:53
Overcast
64°F / 18°C 63°F / 17°C 94% 30.09 in
(1019 mb)
NNE 9.2 mph
(NNE 15 kph)
- 10SM
00:53
Overcast
64°F / 18°C 63°F / 17°C 94% 30.09 in
(1019 mb)
NE 10.4 mph
(NE 17 kph)
- 8SM
Time Weather Temperature Dewpoint Humidity Pressure Winds Precip Visibility


Weather for websites

WeatherForYou.com, LLC is not responsible for any damages or problems caused by this service. Current weather conditions are obtained from the closest station including government and personal stations which may have varying degrees of accuracy. Weather forecasts are derived from the NOAA NDFD. Like all things, this site belongs to Jesus Christ... He just trusts us to maintain it. If you have any questions or comments email webmaster@weatherforyou.com

Copyright © 2015, WeatherForYou.com LLC. All rights reserved.